Flag for Mexico Weather past 2 weeks in Ojinaga, Chihuahua, Mexico

Now
61 °F

Clear.


Feels Like: 61 °F
Forecast: 62 / 89 °F
Wind: 5 mph from Northeast

Location: Marfa Municipal Airport

Current Time: Sep 23, 2014 at 10:30:09 PM

Latest Report: Sep 23, 2014 at 9:55 PM


Visibility: 10 mi

Pressure: 30.24 "Hg

Humidity: 83%

Dew point: 55 °F

Location of OjinagaLocation

Historic Weather in Ojinaga — Graph

°F

Ojinaga temperature yesterday

Maximum temperature yesterday: 75 °F (at 3:55 PM)
Minimum temperature yesterday: 63 °F (at 4:35 AM)
Average temperature yesterday: 67 °F

Past Weeks' High & Low Weather Summary

 TemperatureHumidityPressure
High88 °F (Sep 10, 2:55 PM)100% (Sep 9, 5:55 AM)30.35 "Hg (Sep 9, 5:55 AM)
Low48 °F (Sep 13, 6:35 AM)27% (Sep 10, 3:15 PM)29.97 "Hg (Sep 18, 3:35 PM)
Average67 °F77%30.19 "Hg
* Reported Sep 8 9:15 PM — Sep 23 9:35 PM, Ojinaga, Weather by CustomWeather, © 2014

Note: Actual official high and low records may vary slightly from our data, if they occured in-between our weather recording intervals... More about our weather records

Advertising

Ojinaga weather history for previous 24 hours

 ConditionsComfort  
Time TempWeatherWind HumidityBarometerVisibility
9:35 PM
Sep 23
63 °FClear.5 mph77%30.23 "Hg10 mi
9:15 PM63 °FClear.7 mph77%30.23 "Hg10 mi
8:55 PM63 °FClear.5 mph73%30.22 "Hg10 mi
8:35 PM63 °FClear.6 mph77%30.22 "Hg10 mi
8:15 PM64 °FPassing clouds.7 mph73%30.21 "Hg10 mi
7:55 PM66 °FPassing clouds.6 mph68%30.21 "Hg10 mi
7:35 PM68 °FPassing clouds.5 mph60%30.21 "Hg10 mi
7:15 PM70 °FPartly sunny.6 mph57%30.21 "Hg10 mi
6:55 PM72 °FOvercast.7 mph53%30.20 "Hg10 mi
6:35 PM73 °FOvercast.8 mph50%30.20 "Hg10 mi
6:15 PM73 °FOvercast.8 mph50%30.19 "Hg10 mi
5:55 PM73 °FOvercast.5 mph47%30.20 "Hg8 mi
5:35 PM75 °FOvercast.3 mph44%30.20 "Hg10 mi
5:15 PM75 °FPartly sunny.7 mph44%30.20 "Hg10 mi
4:55 PM75 °FPassing clouds.6 mph44%30.20 "Hg10 mi
4:35 PM75 °FScattered clouds.8 mph44%30.20 "Hg10 mi
4:15 PM75 °FScattered clouds.3 mph44%30.21 "Hg10 mi
3:55 PM75 °FScattered clouds.5 mph44%30.21 "Hg10 mi
3:35 PM75 °FPartly sunny.7 mph41%30.22 "Hg10 mi
2:55 PM75 °FOvercast.8 mph44%30.23 "Hg10 mi
2:35 PM75 °FPartly sunny.8 mph41%30.24 "Hg10 mi
2:15 PM75 °FPartly sunny.8 mph44%30.24 "Hg10 mi
1:55 PM75 °FScattered clouds.6 mph44%30.26 "Hg10 mi
1:35 PM75 °FSunny.6 mph47%30.27 "Hg10 mi
1:15 PM75 °FPassing clouds.12 mph44%30.28 "Hg10 mi
12:55 PM75 °FSunny.13 mph47%30.28 "Hg10 mi
12:35 PM75 °FSunny.8 mph44%30.29 "Hg10 mi
12:15 PM73 °FPassing clouds.9 mph47%30.30 "Hg10 mi
11:55 AM73 °FScattered clouds.13 mph47%30.30 "Hg10 mi
11:35 AM73 °FPassing clouds.13 mph47%30.31 "Hg10 mi
11:15 AM73 °FPassing clouds.13 mph47%30.31 "Hg10 mi
10:55 AM72 °FSunny.15 mph50%30.31 "Hg10 mi
10:35 AM72 °FSunny.17 mph53%30.31 "Hg10 mi
9:55 AM72 °FSunny.14 mph50%30.31 "Hg10 mi
9:35 AM72 °FSunny.17 mph53%30.30 "Hg10 mi
9:15 AM70 °FSunny.13 mph57%30.30 "Hg10 mi
8:55 AM66 °FSunny.6 mph68%30.29 "Hg10 mi
8:35 AM64 °FPassing clouds.5 mph73%30.29 "Hg10 mi
8:15 AM63 °FPartly sunny.No wind77%30.28 "Hg10 mi
7:55 AM61 °FPartly sunny.No wind83%30.28 "Hg10 mi
7:35 AM57 °FPassing clouds.No wind94%30.28 "Hg10 mi
7:15 AM57 °FClear.6 mph94%30.28 "Hg10 mi
6:55 AM57 °FClear.5 mph94%30.27 "Hg10 mi
6:35 AM57 °FClear.3 mph94%30.27 "Hg10 mi
6:15 AM57 °FClear.5 mph94%30.27 "Hg10 mi
5:55 AM57 °FClear.No wind94%30.26 "Hg10 mi
5:35 AM57 °FClear.3 mph94%30.26 "Hg10 mi
5:15 AM57 °FClear.No wind94%30.26 "Hg10 mi
4:55 AM59 °FClear.3 mph88%30.26 "Hg10 mi
4:35 AM61 °FClear.No wind83%30.26 "Hg10 mi
4:15 AM61 °FClear.No wind83%30.26 "Hg10 mi
3:55 AM61 °FClear.3 mph83%30.26 "Hg10 mi
3:35 AM61 °FClear.3 mph83%30.27 "Hg10 mi
3:15 AM61 °FClear.No wind83%30.27 "Hg10 mi
2:55 AM61 °FClear.No wind83%30.27 "Hg10 mi
2:35 AM61 °FClear.3 mph83%30.28 "Hg10 mi
2:15 AM63 °FClear.3 mph77%30.28 "Hg10 mi
1:55 AM63 °FClear.No wind77%30.28 "Hg10 mi
1:35 AM63 °FPassing clouds.No wind77%30.29 "Hg10 mi
1:15 AM63 °FPassing clouds.No wind77%30.29 "Hg10 mi
12:55 AM61 °FPassing clouds.No wind83%30.29 "Hg10 mi
12:35 AM63 °FPassing clouds.No wind73%30.29 "Hg10 mi
11:55 PM
Sep 22
63 °FOvercast.3 mph73%30.29 "Hg10 mi
11:35 PM63 °FOvercast.No wind73%30.30 "Hg10 mi
11:15 PM63 °FOvercast.5 mph73%30.31 "Hg10 mi
10:55 PM63 °FOvercast.5 mph73%30.31 "Hg10 mi
10:35 PM63 °FPassing clouds.3 mph73%30.31 "Hg10 mi
10:15 PM64 °FPassing clouds.5 mph64%30.31 "Hg10 mi
Weather by CustomWeather, © 2014

See weather overviewHow to use our weather pages